Weather History for EHWO - September, 2013

Change the Weather History Date:

Wednesday, September 4, 2013

  Actual Average Record
Temperature  
Mean Temperature 66 °F -  
Max Temperature 80 °F 65 °F 80 °F (2013)
Min Temperature 53 °F 50 °F 44 °F (2003)
Cooling Degree Days 2    
Growing Degree Days 16 (Base 50)    
Moisture  
Dew Point 58 °F    
Average Humidity 87    
Maximum Humidity 100    
Minimum Humidity 51    
Precipitation  
Precipitation 0.00 in - - ()
Sea Level Pressure  
Sea Level Pressure 30.21 in    
Wind  
Wind Speed 4 mph ()    
Max Wind Speed 9 mph    
Max Gust Speed -    
Visibility 4.9 miles    
Events      
Averages and records for this station are not official NWS values.
T = Trace of Precipitation, MM = Missing Value Source: Averaged Metar Reports

Daily Weather History Graph

Daily Weather History Graph

Search for Another Location

Airport or City:

Trip Planner

Search our weather history database for the weather conditions in past years. The results will help you decide how hot, cold, wet, or windy it might be!

Date:

Astronomy

Sep. 04, 2013 Rise Set
Actual Time 7:00 AM CEST 8:21 PM CEST
Civil Twilight 6:25 AM CEST 8:56 PM CEST
Nautical Twilight 5:43 AM CEST 9:38 PM CEST
Astronomical Twilight 4:57 AM CEST 10:23 PM CEST
Moon 5:55 AM CEST (9/4) 7:30 PM CEST (9/4)
Length of Visible Light 14h 30m
Length of Day
13h 21m
Waning Crescent, 1% of the Moon is Illuminated
Sep 4
Waning Crescent
Sep 5
New
Sep 12
First Quarter
Sep 19
Full
Sep 27
Last Quarter

Hourly Weather History & Observations

Time (CEST) Temp. Heat Index Dew Point Humidity Pressure Visibility Wind Dir Wind Speed Gust Speed Precip Events Conditions
12:25 AM 59.0 °F - 59.0 °F 100% 30.27 in 6.2 mi ENE 3.5 mph - N/A   Unknown
12:29 AM 60.8 °F - 59.0 °F 94% 30.27 in 4.3 mi East 3.5 mph - N/A   Mist
12:33 AM 59.0 °F - 59.0 °F 100% 30.27 in 6.2 mi East 3.5 mph - N/A   Unknown
12:46 AM 59.0 °F - 57.2 °F 94% 30.27 in 6.2 mi ENE 2.3 mph - N/A   Unknown
12:55 AM 59.0 °F - 59.0 °F 100% 30.27 in 6.2 mi East 2.3 mph - N/A   Unknown
1:02 AM 59.0 °F - 59.0 °F 100% 30.27 in 3.7 mi East 3.5 mph - N/A   Mist
1:06 AM 59.0 °F - 57.2 °F 94% 30.27 in 6.2 mi East 3.5 mph - N/A   Unknown
1:19 AM 59.0 °F - 57.2 °F 94% 30.27 in 6.2 mi ENE 2.3 mph - N/A   Unknown
1:25 AM 57.2 °F - 57.2 °F 100% 30.27 in 4.3 mi ENE 2.3 mph - N/A   Mist
1:35 AM 57.2 °F - 57.2 °F 100% 30.27 in 5.0 mi ENE 2.3 mph - N/A   Mist
1:39 AM 57.2 °F - 57.2 °F 100% 30.27 in 4.3 mi ENE 2.3 mph - N/A   Mist
1:50 AM 59.0 °F - 57.2 °F 94% 30.27 in 5.0 mi ENE 3.5 mph - N/A   Mist
1:55 AM 59.0 °F - 57.2 °F 94% 30.27 in 4.3 mi ENE 3.5 mph - N/A   Mist
2:08 AM 57.2 °F - 57.2 °F 100% 30.27 in - NE 2.3 mph - N/A   Mist
2:09 AM 57.2 °F - 57.2 °F 100% 30.27 in 3.1 mi NE 2.3 mph - N/A   Mist
2:19 AM 57.2 °F - 57.2 °F 100% 30.27 in 5.0 mi ENE 2.3 mph - N/A   Mist
2:25 AM 57.2 °F - 57.2 °F 100% 30.27 in 4.3 mi ENE 2.3 mph - N/A   Mist
2:29 AM 57.2 °F - 57.2 °F 100% 30.27 in 5.0 mi ENE 2.3 mph - N/A   Mist
2:38 AM 57.2 °F - 57.2 °F 100% 30.27 in 4.3 mi ENE 2.3 mph - N/A   Mist
2:44 AM 57.2 °F - 55.4 °F 94% 30.27 in - ENE 2.3 mph - N/A   Partly Cloudy
2:48 AM 57.2 °F - 57.2 °F 100% 30.27 in 3.7 mi ENE 2.3 mph - N/A   Partly Cloudy
2:55 AM 57.2 °F - 57.2 °F 100% 30.27 in - ENE 2.3 mph - N/A   Mist
2:59 AM 57.2 °F - 55.4 °F 94% 30.27 in 3.7 mi ENE 2.3 mph - N/A   Mist
3:01 AM 57.2 °F - 57.2 °F 100% 30.27 in 1.9 mi ENE 2.3 mph - N/A   Mist
3:07 AM 57.2 °F - 57.2 °F 100% 30.27 in 4.3 mi East 2.3 mph - N/A   Mist
3:12 AM 57.2 °F - 57.2 °F 100% 30.27 in 5.0 mi ENE 2.3 mph - N/A   Mist
3:16 AM 57.2 °F - 57.2 °F 100% 30.27 in 4.3 mi ENE 2.3 mph - N/A   Mist
3:25 AM 55.4 °F - 55.4 °F 100% 30.27 in 3.7 mi East 3.5 mph - N/A   Mist
3:29 AM 55.4 °F - 53.6 °F 94% 30.27 in 5.6 mi East 2.3 mph - N/A   Mist
3:33 AM 55.4 °F - 53.6 °F 94% 30.27 in 4.3 mi East 2.3 mph - N/A   Mist
3:39 AM 55.4 °F - 53.6 °F 94% 30.27 in - ENE 2.3 mph - N/A   Mist
3:48 AM 55.4 °F - 55.4 °F 100% 30.24 in 3.1 mi ENE 3.5 mph - N/A   Partly Cloudy
3:55 AM 55.4 °F - 55.4 °F 100% 30.24 in - ENE 3.5 mph - N/A   Partly Cloudy
3:59 AM 55.4 °F - 53.6 °F 94% 30.24 in 6.2 mi ENE 3.5 mph - N/A   Unknown
4:03 AM 55.4 °F - 55.4 °F 100% 30.24 in - ENE 3.5 mph - N/A   Mist
4:15 AM 55.4 °F - 53.6 °F 94% 30.24 in 3.1 mi ENE 4.6 mph - N/A   Mist
4:25 AM 55.4 °F - 55.4 °F 100% 30.24 in 2.8 mi ENE 3.5 mph - N/A   Mostly Cloudy
4:29 AM 53.6 °F - 51.8 °F 94% 30.24 in 3.1 mi ENE 4.6 mph - N/A   Mostly Cloudy
4:41 AM 57.2 °F - 55.4 °F 94% 30.24 in 5.0 mi East 4.6 mph - N/A   Mist
4:43 AM 55.4 °F - 55.4 °F 100% 30.24 in 4.3 mi East 3.5 mph - N/A   Mist
4:51 AM 55.4 °F - 55.4 °F 100% 30.24 in - ENE 3.5 mph - N/A   Mist
4:55 AM 53.6 °F - 53.6 °F 100% 30.24 in - ENE 3.5 mph - N/A   Mist
5:03 AM 55.4 °F - 55.4 °F 100% 30.24 in - ENE 3.5 mph - N/A   Mist
5:04 AM 55.4 °F - 55.4 °F 100% 30.24 in - East 3.5 mph - N/A   Mist
5:13 AM 55.4 °F - 55.4 °F 100% 30.24 in 2.8 mi East 3.5 mph - N/A   Mist
5:17 AM 55.4 °F - 53.6 °F 94% 30.24 in 3.1 mi ENE 3.5 mph - N/A   Mist
5:21 AM 53.6 °F - 53.6 °F 100% 30.24 in - ENE 3.5 mph - N/A   Mist
5:25 AM 55.4 °F - 53.6 °F 94% 30.24 in - ENE 3.5 mph - N/A   Mist
5:29 AM 53.6 °F - 53.6 °F 100% 30.24 in 4.3 mi ENE 3.5 mph - N/A   Mist
5:33 AM 53.6 °F - 53.6 °F 100% 30.24 in - East 3.5 mph - N/A   Mist
5:38 AM 53.6 °F - 53.6 °F 100% 30.24 in - ENE 3.5 mph - N/A   Mist
5:42 AM 53.6 °F - 53.6 °F 100% 30.24 in 3.7 mi ENE 3.5 mph - N/A   Mist
5:43 AM 53.6 °F - 53.6 °F 100% 30.24 in - ENE 3.5 mph - N/A   Mist
5:50 AM 53.6 °F - 53.6 °F 100% 30.24 in - ENE 3.5 mph - N/A   Mist
5:55 AM 53.6 °F - 53.6 °F 100% 30.24 in - ENE 3.5 mph - N/A   Mist
5:59 AM 53.6 °F - 53.6 °F 100% 30.24 in 2.2 mi ENE 3.5 mph - N/A   Mist
6:07 AM 55.4 °F - 55.4 °F 100% 30.24 in - ENE 4.6 mph - N/A   Mist
6:13 AM 55.4 °F - 55.4 °F 100% 30.24 in - ENE 4.6 mph - N/A   Partly Cloudy
6:18 AM 53.6 °F - 53.6 °F 100% 30.24 in - East 4.6 mph - N/A   Partly Cloudy
6:25 AM 53.6 °F - 53.6 °F 100% 30.24 in 3.7 mi East 3.5 mph - N/A   Mist
6:30 AM 53.6 °F - 53.6 °F 100% 30.21 in - East 3.5 mph - N/A   Mist
6:36 AM 53.6 °F - 53.6 °F 100% 30.21 in - East 3.5 mph - N/A   Mist
6:55 AM 55.4 °F - 53.6 °F 94% 30.24 in - ENE 4.6 mph - N/A   Mist
6:59 AM 53.6 °F - 53.6 °F 100% 30.24 in - ENE 4.6 mph - N/A   Mist
7:11 AM 53.6 °F - 53.6 °F 100% 30.21 in - NE 4.6 mph - N/A   Mist
7:14 AM 53.6 °F - 53.6 °F 100% 30.21 in 1.5 mi ENE 4.6 mph - N/A   Mist
7:25 AM 53.6 °F - 53.6 °F 100% 30.21 in - ENE 5.8 mph - N/A   Mist
7:29 AM 53.6 °F - 53.6 °F 100% 30.21 in - ENE 5.8 mph - N/A   Mist
7:55 AM 55.4 °F - 55.4 °F 100% 30.24 in 1.7 mi ENE 4.6 mph - N/A   Mist
8:02 AM 57.2 °F - 57.2 °F 100% 30.24 in - East 3.5 mph - N/A   Mist
8:06 AM 57.2 °F - 57.2 °F 100% 30.24 in 2.2 mi East 3.5 mph - N/A   Mist
8:07 AM 59.0 °F - 57.2 °F 94% 30.24 in - East 4.6 mph - N/A   Mist
8:15 AM 59.0 °F - 57.2 °F 94% 30.24 in 2.2 mi East 4.6 mph - N/A   Mist
8:20 AM 59.0 °F - 57.2 °F 94% 30.21 in - East 4.6 mph - N/A   Partly Cloudy
8:25 AM 59.0 °F - 57.2 °F 94% 30.21 in - East 4.6 mph - N/A   Partly Cloudy
8:38 AM 60.8 °F - 59.0 °F 94% 30.21 in - ENE 5.8 mph - N/A   Mist
8:44 AM 60.8 °F - 59.0 °F 94% 30.21 in 3.1 mi East 5.8 mph - N/A   Mist
8:48 AM 60.8 °F - 59.0 °F 94% 30.21 in - East 4.6 mph - N/A   Mist
8:55 AM 62.6 °F - 59.0 °F 88% 30.21 in 3.1 mi East 4.6 mph - N/A   Mist
9:07 AM 62.6 °F - 59.0 °F 88% 30.21 in 5.0 mi East 5.8 mph - N/A   Mist
9:08 AM 62.6 °F - 59.0 °F 88% 30.21 in 3.7 mi East 5.8 mph - N/A   Mist
9:25 AM 64.4 °F - 59.0 °F 83% 30.21 in 4.3 mi East 6.9 mph - N/A   Partly Cloudy
9:35 AM 64.4 °F - 59.0 °F 83% 30.21 in 5.0 mi East 5.8 mph - N/A   Mostly Cloudy
9:39 AM 64.4 °F - 59.0 °F 83% 30.21 in 4.3 mi East 6.9 mph - N/A   Scattered Clouds
9:43 AM 66.2 °F - 60.8 °F 83% 30.21 in 5.0 mi East 6.9 mph - N/A   Mist
9:47 AM 66.2 °F - 59.0 °F 78% 30.21 in 4.3 mi East 6.9 mph - N/A   Mist
9:48 AM 66.2 °F - 60.8 °F 83% 30.21 in 5.0 mi East 5.8 mph - N/A   Mist
9:55 AM 66.2 °F - 59.0 °F 78% 30.21 in 5.6 mi East 5.8 mph - N/A   Partly Cloudy
10:08 AM 68.0 °F - 60.8 °F 78% 30.21 in 5.6 mi East 6.9 mph - N/A   Mist
10:25 AM 68.0 °F - 59.0 °F 73% 30.21 in 6.2 mi East 8.1 mph - N/A   Unknown
10:55 AM 69.8 °F - 60.8 °F 73% 30.21 in 6.2 mi East 9.2 mph - N/A   Unknown
11:25 AM 71.6 °F - 60.8 °F 69% 30.21 in 6.2 mi East 9.2 mph - N/A   Partly Cloudy
11:55 AM 73.4 °F - 60.8 °F 65% 30.21 in 6.2 mi East 9.2 mph - N/A   Partly Cloudy
12:25 PM 73.4 °F - 60.8 °F 65% 30.21 in 6.2 mi East 9.2 mph - N/A   Partly Cloudy
12:55 PM 75.2 °F - 60.8 °F 61% 30.18 in 6.2 mi East 9.2 mph - N/A   Unknown
1:16 PM 77.0 °F - 60.8 °F 57% 30.18 in 6.2 mi East 9.2 mph - N/A   Unknown
1:20 PM 77.0 °F - 60.8 °F 57% 30.18 in 6.2 mi ENE 9.2 mph - N/A   Unknown
1:25 PM 77.0 °F - 60.8 °F 57% 30.18 in 6.2 mi ENE 8.1 mph - N/A   Unknown
1:38 PM 77.0 °F - 60.8 °F 57% 30.18 in 6.2 mi ENE 8.1 mph - N/A   Unknown
1:55 PM 77.0 °F - 60.8 °F 57% 30.15 in 6.2 mi ENE 8.1 mph - N/A   Mostly Cloudy
1:59 PM 77.0 °F - 60.8 °F 57% 30.15 in 3.7 mi ENE 8.1 mph - N/A   Haze
2:03 PM 77.0 °F - 60.8 °F 57% 30.15 in 6.2 mi East 9.2 mph - N/A   Partly Cloudy
2:16 PM 77.0 °F - 60.8 °F 57% 30.15 in 6.2 mi East 6.9 mph - N/A   Unknown
2:25 PM 78.8 °F - 60.8 °F 54% 30.15 in 6.2 mi ENE 5.8 mph - N/A   Unknown
2:45 PM 78.8 °F - 60.8 °F 54% 30.15 in 6.2 mi East 6.9 mph - N/A   Partly Cloudy
2:55 PM 78.8 °F - 60.8 °F 54% 30.15 in 6.2 mi East 8.1 mph - N/A   Partly Cloudy
3:25 PM 80.6 °F 81.8 °F 62.6 °F 54% 30.15 in 6.2 mi East 6.9 mph - N/A   Partly Cloudy
3:55 PM 80.6 °F 81.5 °F 60.8 °F 51% 30.12 in 6.2 mi NE 5.8 mph - N/A   Unknown
4:00 PM 80.6 °F 81.5 °F 60.8 °F 51% 30.12 in 6.2 mi ENE 6.9 mph - N/A   Unknown
4:25 PM 80.6 °F 81.5 °F 60.8 °F 51% 30.12 in 6.2 mi East 5.8 mph - N/A   Partly Cloudy
4:55 PM 80.6 °F 81.5 °F 60.8 °F 51% 30.09 in 6.2 mi ENE 6.9 mph - N/A   Unknown
5:25 PM 80.6 °F 81.5 °F 60.8 °F 51% 30.09 in 6.2 mi ENE 6.9 mph - N/A   Unknown
5:55 PM 80.6 °F 81.5 °F 60.8 °F 51% 30.09 in 6.2 mi East 6.9 mph - N/A   Unknown
6:25 PM 80.6 °F 81.5 °F 60.8 °F 51% 30.09 in 6.2 mi East 6.9 mph - N/A   Unknown
6:55 PM 78.8 °F - 62.6 °F 57% 30.06 in 6.2 mi East 4.6 mph - N/A   Unknown
7:25 PM 77.0 °F - 62.6 °F 61% 30.06 in 6.2 mi East 5.8 mph - N/A   Unknown
7:55 PM 75.2 °F - 62.6 °F 65% 30.06 in 6.2 mi East 4.6 mph - N/A   Unknown
8:25 PM 71.6 °F - 62.6 °F 73% 30.06 in 6.2 mi East 4.6 mph - N/A   Unknown
8:55 PM 69.8 °F - 62.6 °F 78% 30.06 in 6.2 mi ENE 4.6 mph - N/A   Unknown
9:04 PM 68.0 °F - 62.6 °F 83% 30.06 in 1.8 mi East 4.6 mph - N/A   Haze
9:10 PM 68.0 °F - 62.6 °F 83% 30.06 in 6.2 mi East 4.6 mph - N/A   Unknown
9:25 PM 68.0 °F - 62.6 °F 83% 30.06 in 6.2 mi East 4.6 mph - N/A   Unknown
9:55 PM 68.0 °F - 60.8 °F 78% 30.06 in 6.2 mi East 4.6 mph - N/A   Unknown
10:25 PM 66.2 °F - 62.6 °F 88% 30.06 in 6.2 mi East 4.6 mph - N/A   Unknown
10:55 PM 66.2 °F - 60.8 °F 83% 30.06 in 6.2 mi ENE 5.8 mph - N/A   Unknown
11:25 PM 64.4 °F - 60.8 °F 88% 30.04 in 6.2 mi East 5.8 mph - N/A   Unknown
11:55 PM 64.4 °F - 59.0 °F 83% 30.04 in 5.6 mi East 5.8 mph - N/A   Mist